[ ตารางข้อมูล ] [ Min-Max ] [ วันนี้4 ] [ วันนี้2 ] [ เทียบ3วัน A ] [ เทียบ4วัน B ]   

วันนี้2   [ ◀ ช่วงเก่ากว่า ] [ ช่วงที่ 188 ] [ ช่วงใหม่กว่า ▶ ] [ ล่าสุด ]    [ 3 ชั่วโมง ] [ 6 ชั่วโมง ] [ 12 ชั่วโมง ] [ 24 ชั่วโมง ]   วันนี้2

อุณภูมิตู้ Knockdown4529  ราย 3 ชั่วโมง  ที่วัดได้ ในช่วงวันเวลา 10/04/2026 (13:49) ถึง 10/04/2026 (16:49) 
ความชื้นในตู้ Knockdown4529  ราย 3 ชั่วโมง  ที่วัดได้ ในช่วงวันเวลา 10/04/2026 (13:49) ถึง 10/04/2026 (16:49) 

 
DS18B20SHTC3 
IDDate d/m/Y & Timedata1
สูง
data2
ต่ำ
data3
นอก
temp
pcb
hum
pcb
Time
 10600  10/04/2026 16:47:23  32.0  31.8  31.8  31.8  67.5  16:47 
 10599  10/04/2026 16:42:40  32.1  31.8  31.8  32.0  67.4  16:42 
 10598  10/04/2026 16:37:59  32.1  31.8  31.9  31.8  67.4  16:37 
 10597  10/04/2026 16:33:17  32.1  31.8  32.0  32.0  67.4  16:33 
 10596  10/04/2026 16:28:34  32.1  31.8  32.0  31.8  67.2  16:28 
 10595  10/04/2026 16:23:50  32.1  31.8  32.2  32.0  67.3  16:23 
 10594  10/04/2026 16:19:08  32.1  31.8  32.1  32.0  67.1  16:19 
 10593  10/04/2026 16:14:24  32.2  31.8  32.0  32.1  67.1  16:14 
 10592  10/04/2026 16:09:41  32.2  31.8  32.2  32.0  67.0  16:09 
 10591  10/04/2026 16:05:00  32.2  31.8  32.2  32.0  66.9  16:05 
 10590  10/04/2026 16:00:18  32.3  31.8  32.4  32.0  66.9  16:00 
 10589  10/04/2026 15:55:36  32.3  31.8  32.3  32.0  66.9  15:55 
 10588  10/04/2026 15:50:55  32.4  31.8  32.5  32.1  66.9  15:50 
 10587  10/04/2026 15:46:11  32.4  31.8  32.1  32.0  66.9  15:46 
 10586  10/04/2026 15:41:27  32.5  31.8  32.1  32.2  66.7  15:41 
 10585  10/04/2026 15:36:45  32.5  31.8  32.3  32.1  66.8  15:36 
 10584  10/04/2026 15:32:03  32.5  31.8  32.5  32.1  66.5  15:32 
 10583  10/04/2026 15:27:21  32.4  31.8  32.5  32.2  66.5  15:27 
 10582  10/04/2026 15:22:38  32.4  31.8  32.7  32.1  66.5  15:22 
 10581  10/04/2026 15:17:56  32.5  31.8  32.8  32.2  66.3  15:17 
 10580  10/04/2026 15:13:12  32.5  31.8  32.7  32.1  66.2  15:13 
 10579  10/04/2026 15:08:30  32.6  31.8  32.9  32.3  66.2  15:08 
 10578  10/04/2026 15:03:48  32.6  31.8  32.6  32.1  66.2  15:03 
 10577  10/04/2026 14:59:06  32.6  31.8  33.1  32.3  66.1  14:59 

Data every 5 minute.


ใช้เวลาประมวลผล 0.00236 วินาที